Location: Pitton
(51.0667°N, 1.7000°W)
Time: 09:28:59
(UTC+00:00)

Resurs 01 Rocket - Pass Details

Date: 17 September 2019
Orbit: 635 x 644 km, 98.0° (Epoch: 17 October)

Event Time Altitude Azimuth Distance (km) Brightness Sun altitude
Exits shadow 20:19:38 33° 162° (SSE) 1,085 2.4 -19.1°
Maximum altitude 20:21:38 87° 74° (ENE) 650 1.5 -19.4°
Drops below altitude 10° 20:26:06 10° 346° (NNW) 2,050 4.8 -20.0°
Sets 20:28:19 0° 347° (NNW) 2,966 5.7 -20.3°
